GEFSMA_con_prob3kmehi_030.txt.gz
EHI
6 10 18 19 16 19 25 26 24 22 19 13 9 6 5 6 6 8 13 18 16 8 2 1 0 1 2 2 1 0 0 1 2 2 2 2 2 2 2 1 0 0 0
8 10 14 16 17 21 31 35 32 30 27 21 14 9 8 7 6 6 9 13 12 7 2 0 0 1 1 1 1 1 1 2 3 5 5 4 3 2 2 1 0 0 0
8 9 11 13 17 24 35 42 44 44 44 37 27 18 16 15 11 7 8 12 13 9 6 2 1 1 2 2 1 2 4 4 5 8 9 7 4 2 1 1 0 0 0
5 7 9 10 15 22 31 42 52 59 60 54 44 33 30 30 22 15 13 16 18 16 11 7 4 3 4 4 3 5 9 12 13 16 18 18 12 6 2 0 0 0 0
3 3 4 6 9 14 22 34 52 64 65 60 51 42 39 41 37 28 23 22 24 22 14 10 8 6 4 4 5 7 13 21 26 31 38 41 35 21 9 2 0 0 0
1 1 1 2 3 6 11 21 36 48 54 55 49 43 43 44 44 42 38 35 30 22 15 13 13 11 8 5 3 7 16 28 39 47 57 65 60 41 19 6 1 0 0
1 1 0 0 0 2 5 11 17 22 29 40 44 43 41 40 41 46 50 46 35 25 20 19 22 24 19 9 4 5 14 28 44 55 64 73 72 53 27 9 2 0 0
0 0 0 0 0 1 3 5 6 7 11 20 30 33 30 29 29 36 49 52 46 39 29 22 27 33 29 19 9 4 7 18 36 53 63 70 67 50 27 9 2 0 0
1 0 0 0 0 1 1 1 2 3 4 8 16 21 20 16 14 21 37 50 54 49 34 22 22 27 27 25 19 8 3 7 21 39 56 64 56 37 19 7 2 1 0
1 0 0 0 0 0 0 0 0 1 3 4 9 16 15 11 9 11 21 35 43 41 30 21 18 20 24 30 31 18 4 3 9 23 40 51 46 28 11 5 5 3 1
1 0 0 0 0 0 0 0 0 0 1 2 5 9 11 12 12 10 10 17 24 26 25 25 26 28 30 33 32 17 4 1 2 9 20 30 33 25 12 7 9 8 7
0 0 0 0 0 0 0 0 0 0 0 1 2 4 7 11 13 13 10 9 13 21 30 36 37 36 34 30 23 12 4 1 0 2 6 11 17 17 12 8 9 11 12
1 0 0 0 0 0 0 0 0 0 0 0 1 2 4 6 10 13 14 10 12 23 35 41 39 34 27 23 18 9 4 2 0 0 1 2 4 6 5 4 5 8 9
2 1 0 0 0 0 0 0 0 0 0 0 0 1 2 3 6 11 15 15 15 21 29 33 31 25 22 19 12 6 4 2 0 0 0 0 0 0 0 0 1 2 2
8 5 3 1 0 0 0 0 0 0 0 0 0 1 1 2 4 9 14 18 20 21 21 22 22 19 17 13 6 3 3 1 0 0 0 0 0 0 0 0 0 0 0
18 14 8 4 2 0 0 0 0 0 0 0 0 1 1 1 3 7 12 19 25 25 20 17 15 13 9 5 2 2 2 0 0 0 0 0 0 0 0 0 0 0 0
22 18 12 7 3 1 0 0 0 0 0 0 0 0 0 1 2 6 10 15 21 24 19 13 10 7 4 2 1 1 0 0 0 0 0 0 0 0 0 0 0 0 0
14 12 10 7 4 1 0 0 0 0 0 0 0 0 0 0 1 3 5 8 12 15 12 7 3 2 1 1 0 0 0 0 0 0 0 0 0 0 0 0 0 0 0
6 5 5 5 3 1 0 0 0 0 0 0 0 0 0 0 0 0 2 4 6 6 5 2 0 0 0 0 0 0 0 0 0 0 0 0 0 0 0 0 0 0 0
2 1 2 2 1 0 0 0 0 0 0 0 0 0 0 0 0 0 2 3 2 2 1 0 0 0 0 0 0 0 0 0 0 0 0 0 0 0 0 0 0 0 0
1 0 0 0 0 0 0 0 0 0 0 0 0 0 0 0 0 0 1 1 0 0 0 0 0 0 0 0 0 0 0 0 0 0 0 0 0 0 0 0 0 0 0
0 0 0 0 0 0 0 0 0 0 0 0 0 0 0 0 0 0 0 0 0 0 0 0 0 0 0 0 0 0 0 0 0 0 0 0 0 0 0 0 0 0 0
0 0 0 0 0 0 0 0 0 0 0 0 0 0 0 0 0 0 0 0 0 0 0 0 0 0 0 0 0 0 0 0 0 0 0 0 0 0 0 0 0 0 0
0 0 0 0 0 0 0 0 0 0 0 0 0 0 0 0 0 0 0 0 0 0 0 0 0 0 0 0 0 0 0 0 0 0 0 0 0 0 0 0 0 0 0
0 0 0 0 0 0 0 0 0 0 0 0 0 0 0 0 0 0 0 0 0 0 0 0 0 0 0 0 0 0 0 0 0 0 0 0 0 0 0 0 0 0 0
0 0 0 0 0 0 0 0 0 0 0 0 0 0 0 0 0 0 0 0 0 0 0 0 0 0 0 0 0 0 0 0 0 0 0 0 0 0 0 0 0 0 0

GEFSMA_con_prob3kmehi_036.txt.gz
EHI
53 50 58 59 48 48 59 64 60 58 56 45 28 19 17 20 27 40 61 78 84 86 85 81 71 52 30 13 8 7 5 3 2 1 0 1 2 2 1 1 1 1 0
56 50 52 57 52 51 57 59 58 57 55 46 32 24 22 24 29 42 59 74 82 83 83 82 75 60 38 20 11 9 9 8 5 2 0 0 1 1 2 2 2 1 1
47 39 36 42 47 48 50 53 54 55 52 46 39 33 32 32 33 39 50 63 74 78 81 82 78 68 51 34 24 20 20 17 10 4 2 1 1 0 1 2 3 2 1
27 22 18 22 29 30 32 37 44 48 46 41 39 39 41 42 37 36 42 53 64 71 75 80 79 73 61 49 42 39 38 32 20 11 6 4 3 1 1 2 2 1 0
11 9 9 10 11 12 12 16 26 34 32 29 28 31 41 45 41 38 40 48 56 59 63 72 78 76 66 57 54 55 53 48 36 24 16 12 8 5 2 1 1 1 0
3 3 3 3 3 2 3 5 10 15 17 16 13 17 28 36 41 43 43 47 52 51 53 63 74 75 67 55 53 58 59 56 49 41 33 26 20 12 5 1 1 1 0
1 1 1 0 0 0 1 1 2 3 6 6 6 7 13 21 30 40 48 53 55 54 52 58 68 74 70 55 46 49 53 54 55 55 50 44 35 23 12 4 2 2 1
4 3 2 1 0 0 0 0 0 0 1 1 1 2 3 7 12 23 38 51 58 62 60 57 63 72 74 66 49 39 38 44 53 60 63 59 48 32 18 9 4 3 2
10 8 5 3 1 0 0 0 0 0 0 0 0 0 1 1 2 7 16 28 44 60 64 59 58 66 74 77 66 44 32 32 41 56 66 66 55 35 19 11 8 6 4
20 19 14 9 5 2 1 1 1 0 0 0 0 0 1 1 1 1 2 8 22 41 54 56 55 61 70 78 75 59 41 30 30 43 55 59 51 33 18 13 16 17 14
38 36 31 25 17 8 3 2 1 0 0 0 0 0 1 1 1 0 0 2 8 20 35 49 56 61 65 68 66 57 41 28 22 26 34 39 38 30 21 19 26 33 32
60 56 51 47 37 21 10 5 2 1 0 0 0 0 0 1 1 0 0 0 2 7 21 39 54 60 60 55 48 36 25 18 13 13 15 18 21 23 22 23 30 38 39
75 74 69 63 50 33 18 8 4 2 1 1 1 1 2 3 2 1 0 0 0 2 11 27 43 54 56 47 33 19 11 7 5 4 5 7 9 12 14 16 22 25 27
79 82 79 68 53 36 22 12 6 4 3 2 1 2 3 3 2 1 0 0 0 0 4 13 29 43 48 39 23 12 6 2 1 0 1 2 3 3 4 6 8 8 9
72 75 76 67 53 38 24 14 8 5 3 2 1 1 2 2 1 0 0 0 0 0 1 5 15 26 32 27 17 9 4 0 0 0 0 0 0 0 0 1 1 0 1
54 57 61 59 51 42 29 17 9 6 3 2 0 0 1 1 1 0 0 0 0 0 0 2 6 11 16 16 11 6 2 0 0 0 0 0 0 0 0 0 0 0 0
29 32 39 41 39 36 29 18 9 4 3 3 1 0 0 0 0 0 0 0 0 0 0 1 3 6 8 8 5 2 1 0 0 0 0 0 0 0 0 0 0 0 0
8 10 16 22 23 22 20 15 7 3 3 3 1 0 0 0 0 0 0 0 0 0 0 0 3 6 6 4 2 0 0 0 0 0 0 0 0 0 0 0 0 0 0
1 1 3 7 11 11 8 7 5 2 2 3 2 1 0 0 0 0 0 0 0 0 0 0 3 5 4 1 0 0 0 0 0 0 0 0 0 0 0 0 0 0 0
0 0 0 2 4 4 2 2 2 2 2 3 2 1 0 0 0 0 0 0 0 0 0 0 1 2 1 0 0 0 0 0 0 0 0 0 0 0 0 0 0 0 0
0 0 0 0 1 1 0 0 1 1 2 2 1 0 0 0 0 0 0 0 0 0 0 0 0 0 0 0 0 0 0 0 0 0 0 0 0 0 0 0 0 0 0
0 0 0 0 0 0 0 0 0 0 1 1 0 0 0 0 0 0 0 0 0 0 0 0 0 0 0 0 0 0 0 0 0 0 0 0 0 0 0 0 0 0 0
0 0 0 0 0 0 0 0 0 0 0 0 0 0 0 0 0 0 0 0 0 0 0 0 0 0 0 0 0 0 0 0 0 0 0 0 0 0 0 0 0 0 0
0 0 0 0 0 0 0 0 0 0 0 0 0 0 0 0 0 0 0 0 0 0 0 0 0 0 0 0 0 0 0 0 0 0 0 0 0 0 0 0 0 0 0
0 0 0 0 0 0 0 0 0 0 0 0 0 0 0 0 0 0 0 0 0 0 0 0 0 0 0 0 0 0 0 0 0 0 0 0 0 0 0 0 0 0 0
0 0 0 0 0 0 0 0 0 0 0 0 0 0 0 0 0 0 0 0 0 0 0 0 0 0 0 0 0 0 0 0 0 0 0 0 0 0 0 0 0 0 0

GEFSMA_con_prob3kmehi_042.txt.gz
EHI
6 6 5 4 3 3 3 3 3 3 3 3 3 4 4 4 5 7 6 6 5 5 9 17 30 47 58 61 56 42 26 14 9 6 5 4 4 5 5 5 4 3 3
8 6 4 3 2 2 2 2 3 3 3 3 4 4 4 4 5 7 6 5 4 5 9 14 22 36 49 54 51 40 27 17 10 6 5 4 3 4 5 5 4 3 3
8 5 2 1 1 1 1 1 2 2 2 3 3 3 3 3 4 6 6 5 4 4 6 10 15 23 33 40 40 34 28 20 11 6 5 4 3 3 4 4 4 3 3
6 4 1 0 0 0 0 0 1 1 1 1 1 1 1 1 1 3 4 5 5 4 5 9 12 17 23 28 27 25 25 21 12 6 4 3 3 3 3 3 3 3 3
3 2 0 0 0 0 0 0 0 0 0 0 0 0 0 0 0 1 1 2 2 3 5 7 10 13 17 19 18 17 20 19 14 8 5 3 3 3 3 3 3 3 3
1 0 0 0 0 0 0 0 0 0 0 0 0 0 0 0 0 0 0 0 0 1 3 5 8 11 13 14 13 13 16 16 15 13 8 4 3 3 3 3 3 3 3
0 0 0 0 0 0 0 0 0 0 0 0 0 0 0 0 0 0 0 0 0 0 1 3 7 10 13 14 12 12 14 13 13 14 12 7 4 3 3 3 3 3 3
0 0 0 0 0 0 0 0 0 0 0 0 0 0 0 0 0 0 0 0 0 0 0 1 4 9 14 16 14 11 11 11 10 11 12 11 7 5 5 4 4 3 3
1 0 0 0 0 0 0 0 0 0 0 0 0 0 0 0 0 0 0 0 0 0 0 0 2 5 9 12 13 10 8 8 7 8 11 11 9 7 7 7 5 3 3
1 1 0 0 0 0 0 0 0 0 0 0 0 0 0 0 0 0 0 0 0 0 0 0 1 2 4 7 9 8 8 7 6 8 10 10 8 8 8 7 5 4 3
1 1 0 0 0 0 0 0 0 0 0 0 0 0 0 0 0 0 0 0 0 0 0 0 0 1 2 3 4 6 6 6 5 6 8 7 6 6 7 7 5 4 3
0 0 0 0 0 0 0 0 0 0 0 0 0 0 0 0 0 0 0 0 0 0 0 0 0 0 1 1 2 3 4 3 3 3 4 4 4 5 7 8 6 4 3
0 0 0 0 0 0 0 0 0 0 0 0 0 0 0 0 0 0 0 0 0 0 0 0 0 0 0 0 1 1 1 1 1 1 1 1 3 4 6 7 6 3 3
0 0 0 0 0 0 0 0 0 0 0 0 0 0 0 0 0 0 0 0 0 0 0 0 0 0 0 0 0 0 0 0 1 0 0 0 1 2 3 3 3 2 1
0 0 0 0 0 0 0 0 0 0 0 0 0 0 0 0 0 0 0 0 0 0 0 0 0 0 0 0 0 0 0 0 0 0 0 0 0 1 1 1 1 0 0
0 0 0 0 0 0 0 0 0 0 0 0 0 0 0 0 0 0 0 0 0 0 0 0 0 0 0 0 0 0 0 0 0 0 0 0 0 0 0 0 0 0 0
0 0 0 0 0 0 0 0 0 0 0 0 0 0 0 0 0 0 0 0 0 0 0 0 0 0 0 0 0 0 0 0 0 0 0 0 0 0 0 0 0 0 0
0 0 0 0 0 0 0 0 0 0 0 0 0 0 0 0 0 0 0 0 0 0 0 0 0 0 0 0 0 0 0 0 0 0 0 0 0 0 0 0 0 0 0
0 0 0 0 0 0 0 0 0 0 0 0 0 0 0 0 0 0 0 0 0 0 0 0 0 0 0 0 0 0 0 0 0 0 0 0 0 0 0 0 0 0 0
0 0 0 0 0 0 0 0 0 0 0 0 0 0 0 0 0 0 0 0 0 0 0 0 0 0 0 0 0 0 0 0 0 0 0 0 0 0 0 0 0 0 0
0 0 0 0 0 0 0 0 0 0 0 0 0 0 0 0 0 0 0 0 0 0 0 0 0 0 0 0 0 0 0 0 0 0 0 0 0 0 0 0 0 0 0
0 0 0 0 0 0 0 0 0 0 0 0 0 0 0 0 0 0 0 0 0 0 0 0 0 0 0 0 0 0 0 0 0 0 0 0 0 0 0 0 0 0 0
0 0 0 0 0 0 0 0 0 0 0 0 0 0 0 0 0 0 0 0 0 0 0 0 0 0 0 0 0 0 0 0 0 0 0 0 0 0 0 0 0 0 0
0 0 0 0 0 0 0 0 0 0 0 0 0 0 0 0 0 0 0 0 0 0 0 0 0 0 0 0 0 0 0 0 0 0 0 0 0 0 0 0 0 0 0
0 0 0 0 0 0 0 0 0 0 0 0 0 0 0 0 0 0 0 0 0 0 0 0 0 0 0 0 0 0 0 0 0 0 0 0 0 0 0 0 0 0 0
0 0 0 0 0 0 0 0 0 0 0 0 0 0 0 0 0 0 0 0 0 0 0 0 0 0 0 0 0 0 0 0 0 0 0 0 0 0 0 0 0 0 0

GEFSMA_con_prob3kmehi_048.txt.gz
EHI
6 4 2 2 1 0 0 1 1 1 0 0 0 0 0 0 0 0 0 0 0 1 2 2 2 1 1 2 3 6 8 8 6 4 3 2 1 0 0 0 0 0 0
6 4 2 1 0 0 0 0 1 0 0 0 0 0 0 0 0 0 0 0 0 1 1 1 1 0 1 1 1 3 4 5 5 4 3 3 2 1 0 0 0 0 0
4 4 2 0 0 0 0 0 1 0 0 0 0 0 0 0 0 0 0 0 0 0 1 1 0 1 1 1 0 1 1 2 2 3 3 3 2 1 1 0 0 0 0
3 3 1 0 0 0 0 0 0 0 0 0 0 0 0 0 0 0 0 0 0 0 0 0 0 1 1 1 2 2 1 0 1 2 2 2 1 1 1 0 0 0 0
2 1 0 0 0 0 0 0 0 0 0 0 0 0 0 0 0 0 0 0 0 0 0 0 0 0 1 2 4 5 4 2 1 1 1 1 0 0 0 0 0 0 0
1 0 0 0 0 0 0 0 0 0 0 0 0 0 0 0 0 0 0 0 0 0 0 0 0 0 0 2 5 7 8 6 3 2 1 1 1 0 0 0 0 0 0
0 0 0 0 0 0 0 0 0 0 0 0 0 0 0 0 0 0 0 0 0 0 0 0 0 0 0 0 2 5 7 9 8 5 4 4 3 1 0 0 0 0 0
0 0 0 0 0 0 0 0 0 0 0 0 0 0 0 0 0 0 0 0 0 0 0 0 0 0 0 0 0 2 4 7 9 8 7 7 6 4 1 0 0 0 0
0 0 0 0 0 0 0 0 1 0 0 0 0 0 0 0 0 0 0 0 0 0 0 0 0 0 0 0 0 1 2 4 5 8 8 7 6 4 2 1 1 1 0
0 0 0 0 0 0 0 0 0 0 0 0 0 0 0 0 0 0 0 0 0 0 0 0 0 0 0 0 0 0 1 1 2 5 8 7 5 3 1 1 2 1 1
0 0 0 0 0 0 0 0 0 0 0 0 0 0 0 0 0 0 0 0 0 0 0 0 0 0 0 0 0 0 0 0 1 3 6 6 5 4 3 3 4 3 2
0 0 0 0 0 0 0 0 0 0 0 0 0 0 0 0 0 0 0 0 0 0 0 0 0 0 0 0 0 0 0 0 0 1 2 3 5 6 8 8 8 7 6
0 0 0 0 0 0 0 0 0 0 0 0 0 0 0 0 0 0 0 0 0 0 0 0 0 0 0 0 0 0 0 0 0 0 0 1 2 5 8 9 11 11 10
0 0 0 0 0 0 0 0 0 0 0 0 0 0 0 0 0 0 0 0 0 0 0 0 0 0 0 0 0 0 0 0 0 0 0 0 0 2 3 5 7 9 9
0 0 0 0 0 0 0 0 0 0 0 0 0 0 0 0 0 0 0 0 0 0 0 0 0 0 0 0 0 0 0 0 0 0 0 0 0 0 1 1 2 3 3
0 0 0 0 0 0 0 0 0 0 0 0 0 0 0 0 0 0 0 0 0 0 0 0 0 0 0 0 0 0 0 0 0 0 0 0 0 0 0 0 0 0 0
0 0 0 0 0 0 0 0 0 0 0 0 0 0 0 0 0 0 0 0 0 0 0 0 0 0 0 0 0 0 0 0 0 0 0 0 0 0 0 0 0 0 0
0 0 0 0 0 0 0 0 0 0 0 0 0 0 0 0 0 0 0 0 0 0 0 0 0 0 0 0 0 0 0 0 0 0 0 0 0 0 0 0 0 0 0
0 0 0 0 0 0 0 0 0 0 0 0 0 0 0 0 0 0 0 0 0 0 0 0 0 0 0 0 0 0 0 0 0 0 0 0 0 0 0 0 0 0 0
0 0 0 0 0 0 0 0 0 0 0 0 0 0 0 0 0 0 0 0 0 0 0 0 0 0 0 0 0 0 0 0 0 0 0 0 0 0 0 0 0 0 0
0 0 0 0 0 0 0 0 0 0 0 0 0 0 0 0 0 0 0 0 0 0 0 0 0 0 0 0 0 0 0 0 0 0 0 0 0 0 0 0 0 0 0
0 0 0 0 0 0 0 0 0 0 0 0 0 0 0 0 0 0 0 0 0 0 0 0 0 0 0 0 0 0 0 0 0 0 0 0 0 0 0 0 0 0 0
0 0 0 0 0 0 0 0 0 0 0 0 0 0 0 0 0 0 0 0 0 0 0 0 0 0 0 0 0 0 0 0 0 0 0 0 0 0 0 0 0 0 0
0 0 0 0 0 0 0 0 0 0 0 0 0 0 0 0 0 0 0 0 0 0 0 0 0 0 0 0 0 0 0 0 0 0 0 0 0 0 0 0 0 0 0
0 0 0 0 0 0 0 0 0 0 0 0 0 0 0 0 0 0 0 0 0 0 0 0 0 0 0 0 0 0 0 0 0 0 0 0 0 0 0 0 0 0 0
0 0 0 0 0 0 0 0 0 0 0 0 0 0 0 0 0 0 0 0 0 0 0 0 0 0 0 0 0 0 0 0 0 0 0 0 0 0 0 0 0 0 0

GEFSMA_con_prob3kmehi_054.txt.gz
EHI
42 45 57 57 39 26 25 24 18 11 6 1 0 0 0 0 0 2 11 23 19 7 1 0 0 1 2 2 1 0 0 1 1 0 0 0 0 0 0 0 0 0 0
45 48 54 53 39 29 28 25 18 11 6 1 0 0 0 0 1 1 6 13 12 4 1 0 0 1 2 2 2 1 1 2 2 1 0 0 0 0 0 0 0 0 0
41 43 44 42 36 31 28 24 17 11 6 3 2 2 2 2 2 1 2 5 4 1 0 0 1 3 4 5 5 5 4 4 4 1 0 0 0 0 0 0 0 0 0
28 31 32 31 31 28 23 19 14 8 5 4 4 3 3 3 2 0 1 1 1 1 0 0 2 5 6 6 7 8 8 7 5 2 1 0 0 0 0 0 0 0 0
18 21 24 24 25 23 17 12 8 5 3 2 2 2 2 1 1 0 0 0 0 1 1 1 2 4 5 5 6 9 10 9 6 4 3 1 0 0 0 0 0 0 0
10 12 15 17 17 15 12 8 4 3 2 1 0 0 0 0 0 0 0 0 0 0 0 1 1 2 3 3 4 7 9 8 6 5 4 2 0 0 0 0 0 0 0
4 5 7 10 11 9 7 4 2 2 2 1 0 0 0 0 0 0 0 0 0 0 0 0 1 1 1 1 3 5 6 6 5 3 3 3 1 0 0 0 0 0 0
2 2 4 6 7 7 5 3 2 1 1 0 1 1 0 0 0 0 0 0 0 0 0 0 0 0 0 0 1 2 3 3 3 2 2 3 2 1 2 1 1 0 0
2 1 2 3 4 5 5 3 3 2 0 0 1 1 0 0 0 0 0 0 0 0 0 0 0 0 0 0 0 0 1 1 1 1 1 2 2 2 3 3 2 1 0
1 1 0 1 1 2 2 2 2 2 1 0 1 1 0 0 0 0 0 0 0 0 0 0 0 0 0 0 0 0 0 0 0 0 1 2 2 3 3 3 3 2 2
0 0 0 0 0 0 0 1 1 1 1 1 1 1 1 0 0 0 0 0 0 0 0 0 0 0 0 0 0 0 0 0 0 0 0 1 1 3 3 3 3 3 3
0 0 0 0 0 0 0 1 2 2 1 2 2 2 2 1 1 0 0 0 0 0 0 0 0 0 0 0 0 0 0 0 0 0 0 0 1 2 3 4 3 3 3
0 0 0 0 0 0 0 1 2 2 2 1 1 2 4 5 4 3 1 1 1 1 0 0 0 0 0 0 0 0 0 0 0 0 0 0 0 1 2 3 3 3 3
0 0 0 0 0 0 0 0 1 1 1 1 1 3 6 9 10 7 4 3 4 3 2 1 0 0 0 0 0 0 0 0 0 0 0 0 0 0 1 1 1 1 2
0 0 0 0 0 0 0 0 0 0 0 0 1 3 6 11 13 12 9 7 6 4 3 2 1 0 0 0 0 0 0 0 0 0 0 0 0 0 0 0 0 0 1
0 0 0 0 0 0 0 0 0 0 0 0 0 1 4 8 13 15 13 11 9 7 5 4 3 2 2 1 0 0 0 0 0 0 0 0 0 0 0 0 0 0 0
0 0 0 0 0 0 0 0 0 0 0 0 0 0 1 4 9 13 13 12 11 10 8 6 6 5 3 2 1 0 0 0 0 0 0 0 0 0 0 0 0 0 0
0 0 0 0 0 0 0 0 0 0 0 0 0 0 0 1 3 6 9 9 9 10 7 7 7 6 4 2 1 0 0 0 0 0 0 0 0 0 0 0 0 0 0
0 0 0 0 0 0 0 0 0 0 0 0 0 0 0 0 0 2 3 5 5 5 6 6 6 5 4 2 1 0 0 0 0 0 0 0 0 0 0 0 0 0 0
0 0 0 0 0 0 0 0 0 0 0 0 0 0 0 0 0 0 0 1 2 2 4 5 4 3 3 2 1 0 0 0 0 0 0 0 0 0 0 0 0 0 0
0 0 1 0 0 0 0 0 0 0 0 0 0 0 0 0 0 0 0 0 0 0 1 3 3 2 2 2 1 0 0 0 0 0 0 0 0 0 0 0 0 0 0
0 0 0 0 0 0 0 0 0 0 0 0 0 0 0 0 0 0 0 0 0 0 0 1 1 1 1 1 1 0 0 0 0 0 0 0 0 0 0 0 0 0 0
0 0 0 0 0 0 0 0 0 0 0 0 0 0 0 0 0 0 0 0 0 0 0 0 0 0 0 0 0 0 0 0 0 0 0 0 0 0 0 0 0 0 0
0 0 0 0 0 0 0 0 0 0 0 0 0 0 0 0 0 0 0 0 0 0 0 0 0 0 0 0 0 0 0 0 0 0 0 0 0 0 0 0 0 0 0
0 0 0 0 0 0 0 0 0 0 0 0 0 0 0 0 0 0 0 0 0 0 0 0 0 0 0 0 0 0 0 0 0 0 0 0 0 0 0 0 0 0 0
0 0 0 0 0 0 0 0 0 0 0 0 0 0 0 0 0 0 0 0 0 0 0 0 0 0 0 0 0 0 0 0 0 0 0 0 0 0 0 0 0 0 0

GEFSMA_con_prob3kmehi_060.txt.gz
EHI
63 62 70 74 70 67 64 57 43 33 31 28 24 24 20 15 12 12 20 34 44 51 55 46 27 14 9 7 5 4 4 2 1 0 0 0 0 0 0 0 0 0 0
65 64 66 67 64 60 58 53 42 30 28 26 22 20 18 16 17 19 25 34 39 40 42 36 23 14 9 5 4 4 3 2 1 0 0 0 0 0 0 0 0 0 0
62 60 58 57 55 51 47 43 35 25 21 19 15 12 13 16 21 24 27 32 31 27 25 22 17 12 6 3 2 2 1 2 2 1 1 0 0 0 0 1 0 0 0
49 48 48 47 46 43 37 31 24 17 12 9 7 7 12 17 20 20 21 23 22 18 14 12 10 7 4 2 2 1 0 1 2 3 2 1 0 0 0 0 0 0 0
32 34 37 37 36 31 25 18 14 10 7 4 4 5 10 15 16 12 9 10 11 10 9 7 5 3 2 2 1 2 2 2 2 3 2 1 0 0 0 0 0 0 0
19 21 25 26 24 19 13 9 8 6 4 3 1 1 4 7 8 5 2 3 3 5 7 8 7 3 1 1 1 3 4 3 2 1 2 2 1 0 0 0 0 0 0
10 12 15 15 13 11 9 7 5 4 2 1 0 0 0 1 3 2 1 1 1 1 5 9 10 6 3 1 1 3 3 3 2 1 1 2 1 0 0 0 0 0 0
5 6 8 8 7 8 8 6 4 3 2 1 0 0 0 0 1 1 0 0 0 0 2 5 7 7 5 2 1 1 1 2 3 2 1 1 0 0 0 0 0 0 0
2 3 3 3 4 5 5 4 3 2 2 1 0 0 0 0 0 0 0 0 0 0 0 1 2 5 5 3 2 1 1 2 3 2 1 0 0 0 0 0 0 0 0
1 1 1 1 3 3 3 3 2 2 1 0 0 0 0 0 0 0 0 0 0 0 0 0 1 4 5 5 4 2 0 1 1 1 0 0 0 0 0 0 0 0 0
2 1 1 1 1 1 1 2 3 2 1 0 1 1 1 0 0 1 0 0 0 0 0 0 1 4 6 6 5 1 0 0 0 0 0 0 0 0 0 0 0 0 0
3 3 2 2 1 0 0 1 2 2 1 0 1 2 3 2 2 1 1 1 0 0 0 0 1 3 5 5 3 1 0 0 0 0 0 0 0 0 0 0 0 0 0
3 3 2 2 1 0 0 0 1 1 0 0 0 1 3 4 3 3 3 2 1 1 2 2 2 3 4 5 3 0 0 0 0 0 0 0 0 0 0 0 0 0 0
2 2 1 1 1 0 0 0 0 0 0 0 0 0 1 3 4 4 5 4 3 2 2 3 4 5 7 8 4 0 0 0 0 0 0 0 0 0 0 0 0 0 0
0 0 0 1 1 1 0 0 0 0 0 0 0 0 0 1 2 3 4 6 5 3 2 3 6 9 11 9 4 2 1 0 0 0 0 0 0 0 0 0 0 0 0
0 0 0 0 1 1 0 0 0 0 0 0 0 0 0 0 1 1 2 4 5 3 1 3 7 12 14 9 4 3 2 0 0 0 0 0 0 0 0 0 0 0 0
0 0 0 0 0 0 0 0 0 0 0 0 0 0 0 0 0 0 0 2 4 4 2 1 4 10 12 8 4 3 1 0 0 0 0 0 0 0 0 0 0 0 0
0 0 0 0 0 0 0 0 0 0 0 0 0 0 0 0 0 0 0 1 2 3 2 1 2 4 6 5 2 1 0 0 0 0 0 0 0 0 0 0 0 0 0
0 0 0 0 0 0 0 0 0 0 0 0 0 0 0 0 0 0 0 0 1 1 2 2 1 1 2 2 1 0 0 0 0 0 0 0 0 0 0 0 0 0 0
0 0 0 0 0 0 0 0 0 0 0 0 0 0 0 0 0 0 0 0 0 0 1 1 1 0 1 1 0 0 0 0 0 0 0 0 0 0 0 0 0 0 0
0 0 0 0 0 0 0 0 0 0 0 0 0 0 0 0 0 0 0 0 0 0 0 0 0 0 0 0 0 0 0 0 0 0 0 0 0 0 0 0 0 0 0
0 0 0 0 0 0 0 0 0 0 0 0 0 0 0 0 0 0 0 0 0 0 0 0 0 0 0 0 0 0 0 0 0 0 0 0 0 0 0 0 0 0 0
0 0 0 0 0 0 0 0 0 0 0 0 0 0 0 0 0 0 0 0 0 0 0 0 0 0 0 0 0 0 0 0 0 0 0 0 0 0 0 0 0 0 0
0 0 0 0 0 0 0 0 0 0 0 0 0 0 0 0 0 0 0 0 0 0 0 0 0 0 0 0 0 0 0 0 0 0 0 0 0 0 0 0 0 0 0
0 0 0 0 0 0 0 0 0 0 0 0 0 0 0 0 0 0 0 0 0 0 0 0 0 0 0 0 0 0 0 0 0 0 0 0 0 0 0 0 0 0 0
0 0 0 0 0 0 0 0 0 0 0 0 0 0 0 0 0 0 0 0 0 0 0 0 0 0 0 0 0 0 0 0 0 0 0 0 0 0 0 0 0 0 0